Location: Berbisdorf
(50.7638°N, 12.9442°E)
Time: 08:24:27
(UTC+00:00)

CZ-4C R/B - Visible Passes

Search period start: 23 September 2020 00:00
Search period end: 03 October 2020 00:00
Orbit: 465 x 635 km, 98.0° (Epoch: 23 September)

Date Brightness Start Highest point End Pass type
(mag) Time Alt. Az. Time Alt. Az. Time Alt. Az.
23 Sep 6.1 00:54:21 16° N 00:54:21 16° N 00:55:16 10° NNW visible
24 Sep 6.2 00:50:08 15° N 00:50:08 15° N 00:50:56 10° N visible
25 Sep 6.3 00:45:55 14° N 00:45:55 14° N 00:46:36 10° N visible
26 Sep 6.4 00:41:41 13° N 00:41:41 13° N 00:42:15 10° N visible
27 Sep 6.5 00:37:27 13° N 00:37:27 13° N 00:37:53 10° N visible
28 Sep 6.6 00:33:15 12° N 00:33:15 12° N 00:33:31 10° N visible
29 Sep 6.7 00:29:02 11° N 00:29:02 11° N 00:29:09 10° N visible
